Location: Bad Salzschlirf
(50.3750°N, 9.3000°E)
Time: 04:41:10
(UTC+02:00)

ISS - Pass Details

Date: 31 March 2020
Orbit: 417 x 423 km, 51.6° (Epoch: 29 March)

Event Time Altitude Azimuth Distance (km) Brightness Sun altitude
Rises 21:44:27 0° 287° (WNW) 2,362 1.6 -17.3°
Reaches altitude 10° 21:46:36 10° 280° (W) 1,497 0.1 -17.6°
Maximum altitude 21:49:48 42° 208° (SSW) 608 -3.0 -18.1°
Enters shadow 21:50:14 39° 185° (S) 636 -3.1 -18.1°
